Wetterdaten: Donnerstag, 29.10.2015
Datum Zeit Auen-Temp. Temp gefhlt Luftfeuchte Luftdruck Regen Wind Richtung Richtung Taupunkt Windben
29.10.2015 00:00 7,4 C 7,2 C 84 % 1012,1 hPa 0,0 mm 6,5 km/h (2 Bft) NW 315 4,9 C 6,5 km/h (2 Bft)
29.10.2015 00:05 7,0 C 7,1 C 84 % 1012,1 hPa 0,0 mm 3,9 km/h (1 Bft) W-SW 247 4,5 C 0,0 km/h (0 Bft)
29.10.2015 00:10 7,2 C 7,1 C 84 % 1012,6 hPa 0,0 mm 3,4 km/h (1 Bft) S 180 4,7 C 4,7 km/h (1 Bft)
29.10.2015 00:15 7,2 C 7,2 C 85 % 1012,6 hPa 0,0 mm 3,6 km/h (1 Bft) W-SW 247 4,9 C 7,3 km/h (2 Bft)
29.10.2015 00:20 7,5 C 7,4 C 85 % 1012,6 hPa 0,0 mm 4,4 km/h (1 Bft) S 180 5,1 C 11,7 km/h (2 Bft)
29.10.2015 00:25 7,5 C 7,4 C 85 % 1012,6 hPa 0,0 mm 3,6 km/h (1 Bft) SW 225 5,1 C 5,2 km/h (1 Bft)
29.10.2015 00:30 7,7 C 7,6 C 85 % 1012,8 hPa 0,0 mm 4,7 km/h (1 Bft) W 270 5,3 C 16,8 km/h (3 Bft)
29.10.2015 00:35 8,0 C 7,7 C 86 % 1012,8 hPa 0,0 mm 7,0 km/h (2 Bft) SW 225 5,8 C 4,7 km/h (1 Bft)
29.10.2015 00:40 7,9 C 7,8 C 86 % 1012,8 hPa 0,0 mm 5,7 km/h (1 Bft) W 270 5,7 C 16,8 km/h (3 Bft)
29.10.2015 00:45 8,3 C 8,0 C 86 % 1012,8 hPa 0,0 mm 7,3 km/h (2 Bft) W 270 6,1 C 11,7 km/h (2 Bft)
29.10.2015 00:50 8,3 C 8,0 C 86 % 1012,6 hPa 0,0 mm 7,5 km/h (2 Bft) W-SW 247 6,1 C 21,2 km/h (4 Bft)
29.10.2015 00:55 8,4 C 8,2 C 86 % 1012,6 hPa 0,0 mm 7,3 km/h (2 Bft) W-NW 292 6,2 C 11,1 km/h (2 Bft)
29.10.2015 01:00 8,4 C 8,1 C 86 % 1012,6 hPa 0,0 mm 8,0 km/h (2 Bft) W 270 6,2 C 5,7 km/h (1 Bft)
29.10.2015 01:05 8,2 C 8,2 C 86 % 1012,6 hPa 0,0 mm 6,0 km/h (2 Bft) S-SO 157 6,0 C 2,6 km/h (1 Bft)
29.10.2015 01:10 8,2 C 8,2 C 86 % 1012,8 hPa 0,0 mm 4,9 km/h (1 Bft) W-NW 292 6,0 C 12,2 km/h (2 Bft)
29.10.2015 01:15 8,6 C 8,5 C 86 % 1012,8 hPa 0,0 mm 6,0 km/h (2 Bft) W-SW 247 6,4 C 8,3 km/h (2 Bft)
29.10.2015 01:20 8,7 C 8,6 C 86 % 1012,8 hPa 0,0 mm 6,7 km/h (2 Bft) W-SW 247 6,5 C 6,5 km/h (2 Bft)
29.10.2015 01:25 8,8 C 8,8 C 86 % 1012,8 hPa 0,0 mm 6,2 km/h (2 Bft) W-SW 247 6,6 C 6,0 km/h (2 Bft)
29.10.2015 01:30 8,9 C 8,8 C 86 % 1012,9 hPa 0,0 mm 6,5 km/h (2 Bft) W 270 6,7 C 9,1 km/h (2 Bft)
29.10.2015 01:35 9,0 C 8,9 C 85 % 1012,9 hPa 0,0 mm 7,3 km/h (2 Bft) W 270 6,6 C 6,7 km/h (2 Bft)
29.10.2015 01:40 8,9 C 8,8 C 85 % 1012,9 hPa 0,0 mm 7,0 km/h (2 Bft) W 270 6,5 C 8,0 km/h (2 Bft)
29.10.2015 01:44 8,9 C 8,8 C 85 % 1012,9 hPa 0,0 mm 7,0 km/h (2 Bft) W 270 6,5 C 8,0 km/h (2 Bft)
29.10.2015 01:45 8,8 C 8,8 C 85 % 1012,9 hPa 0,0 mm 5,4 km/h (1 Bft) W 270 6,4 C 9,8 km/h (2 Bft)
29.10.2015 01:50 8,9 C 8,9 C 85 % 1012,9 hPa 0,0 mm 5,7 km/h (1 Bft) W 270 6,5 C 9,3 km/h (2 Bft)
29.10.2015 01:55 8,9 C 8,9 C 85 % 1012,9 hPa 0,0 mm 5,4 km/h (1 Bft) NW 315 6,5 C 4,9 km/h (1 Bft)
29.10.2015 02:00 9,0 C 9,0 C 85 % 1012,9 hPa 0,0 mm 5,2 km/h (1 Bft) N 360 6,6 C 11,7 km/h (2 Bft)
29.10.2015 02:05 9,0 C 9,0 C 85 % 1012,9 hPa 0,0 mm 4,7 km/h (1 Bft) W-NW 292 6,6 C 8,0 km/h (2 Bft)
29.10.2015 02:10 9,0 C 9,0 C 85 % 1013,2 hPa 0,0 mm 3,9 km/h (1 Bft) NW 315 6,6 C 5,2 km/h (1 Bft)
29.10.2015 02:15 9,1 C 9,1 C 85 % 1013,2 hPa 0,0 mm 6,2 km/h (2 Bft) NW 315 6,7 C 7,3 km/h (2 Bft)
29.10.2015 02:20 9,1 C 9,1 C 85 % 1013,2 hPa 0,0 mm 6,5 km/h (2 Bft) W-SW 247 6,7 C 5,4 km/h (1 Bft)
29.10.2015 02:25 9,1 C 9,1 C 85 % 1013,2 hPa 0,0 mm 6,0 km/h (2 Bft) W 270 6,7 C 3,1 km/h (1 Bft)
29.10.2015 02:30 9,1 C 9,1 C 85 % 1013,5 hPa 0,0 mm 5,7 km/h (1 Bft) W 270 6,7 C 10,6 km/h (2 Bft)
29.10.2015 02:35 9,1 C 9,1 C 85 % 1013,5 hPa 0,0 mm 5,4 km/h (1 Bft) W-NW 292 6,7 C 3,1 km/h (1 Bft)
29.10.2015 02:40 9,1 C 9,1 C 85 % 1013,5 hPa 0,0 mm 6,0 km/h (2 Bft) NW 315 6,7 C 14,2 km/h (3 Bft)
29.10.2015 02:45 9,1 C 9,1 C 85 % 1013,5 hPa 0,0 mm 4,7 km/h (1 Bft) N-NO 22 6,7 C 6,7 km/h (2 Bft)
29.10.2015 02:50 9,1 C 9,0 C 85 % 1013,6 hPa 0,0 mm 6,5 km/h (2 Bft) W-SW 247 6,7 C 3,9 km/h (1 Bft)
29.10.2015 02:55 9,0 C 9,0 C 85 % 1013,6 hPa 0,0 mm 6,0 km/h (2 Bft) W 270 6,6 C 4,4 km/h (1 Bft)
29.10.2015 03:00 9,1 C 9,0 C 85 % 1013,6 hPa 0,0 mm 6,0 km/h (2 Bft) W-NW 292 6,7 C 18,1 km/h (3 Bft)
29.10.2015 03:05 9,1 C 8,9 C 85 % 1013,6 hPa 0,0 mm 8,0 km/h (2 Bft) NW 315 6,7 C 3,1 km/h (1 Bft)
29.10.2015 03:10 9,1 C 8,9 C 85 % 1013,7 hPa 0,0 mm 8,3 km/h (2 Bft) S 180 6,7 C 6,5 km/h (2 Bft)
29.10.2015 03:15 9,0 C 9,0 C 85 % 1013,7 hPa 0,0 mm 5,4 km/h (1 Bft) W-SW 247 6,6 C 6,5 km/h (2 Bft)
29.10.2015 03:20 9,0 C 9,0 C 85 % 1013,7 hPa 0,0 mm 6,0 km/h (2 Bft) NW 315 6,6 C 11,7 km/h (2 Bft)
29.10.2015 03:25 9,0 C 8,8 C 85 % 1013,7 hPa 0,0 mm 8,5 km/h (2 Bft) W 270 6,6 C 13,2 km/h (3 Bft)
29.10.2015 03:30 8,9 C 8,7 C 85 % 1013,9 hPa 0,0 mm 7,8 km/h (2 Bft) NW 315 6,5 C 0,0 km/h (0 Bft)
29.10.2015 03:35 8,9 C 8,9 C 85 % 1013,9 hPa 0,0 mm 6,0 km/h (2 Bft) W 270 6,5 C 3,6 km/h (1 Bft)
29.10.2015 03:40 8,9 C 8,8 C 85 % 1013,9 hPa 0,0 mm 6,5 km/h (2 Bft) W 270 6,5 C 7,8 km/h (2 Bft)
29.10.2015 03:45 9,0 C 8,9 C 85 % 1013,9 hPa 0,0 mm 7,8 km/h (2 Bft) W 270 6,6 C 5,7 km/h (1 Bft)
29.10.2015 03:50 8,9 C 8,9 C 85 % 1014,0 hPa 0,0 mm 6,5 km/h (2 Bft) W 270 6,5 C 4,9 km/h (1 Bft)
29.10.2015 03:55 8,9 C 8,9 C 85 % 1014,0 hPa 0,0 mm 4,9 km/h (1 Bft) W 270 6,5 C 13,5 km/h (3 Bft)
29.10.2015 04:00 8,9 C 8,9 C 85 % 1014,0 hPa 0,0 mm 4,7 km/h (1 Bft) W 270 6,5 C 0,0 km/h (0 Bft)
29.10.2015 04:05 8,8 C 8,8 C 85 % 1014,0 hPa 0,0 mm 4,7 km/h (1 Bft) S-SW 202 6,4 C 9,8 km/h (2 Bft)
29.10.2015 04:10 8,8 C 8,8 C 85 % 1014,6 hPa 0,0 mm 4,4 km/h (1 Bft) W-SW 247 6,4 C 4,7 km/h (1 Bft)
29.10.2015 04:15 8,8 C 8,8 C 85 % 1014,6 hPa 0,0 mm 4,9 km/h (1 Bft) W-SW 247 6,4 C 4,1 km/h (1 Bft)
29.10.2015 04:20 8,8 C 8,8 C 85 % 1014,6 hPa 0,0 mm 4,4 km/h (1 Bft) S 180 6,4 C 5,4 km/h (1 Bft)
29.10.2015 04:25 8,6 C 8,6 C 85 % 1014,6 hPa 0,0 mm 3,6 km/h (1 Bft) W 270 6,2 C 5,7 km/h (1 Bft)
29.10.2015 04:30 8,6 C 8,5 C 85 % 1014,4 hPa 0,0 mm 4,7 km/h (1 Bft) W-NW 292 6,2 C 5,4 km/h (1 Bft)
29.10.2015 04:35 8,5 C 8,4 C 85 % 1014,4 hPa 0,0 mm 5,7 km/h (1 Bft) S-SW 202 6,1 C 8,8 km/h (2 Bft)
29.10.2015 04:40 8,5 C 8,4 C 85 % 1014,4 hPa 0,0 mm 5,2 km/h (1 Bft) W-SW 247 6,1 C 6,5 km/h (2 Bft)
29.10.2015 04:45 8,4 C 8,3 C 86 % 1014,4 hPa 0,0 mm 4,9 km/h (1 Bft) W 270 6,2 C 4,9 km/h (1 Bft)
29.10.2015 04:50 8,3 C 8,2 C 86 % 1014,6 hPa 0,0 mm 3,9 km/h (1 Bft) W-SW 247 6,1 C 4,1 km/h (1 Bft)
29.10.2015 04:55 8,2 C 8,1 C 86 % 1014,6 hPa 0,0 mm 3,6 km/h (1 Bft) W 270 6,0 C 4,1 km/h (1 Bft)
29.10.2015 05:00 8,2 C 8,1 C 86 % 1014,6 hPa 0,0 mm 4,1 km/h (1 Bft) W-NW 292 6,0 C 7,3 km/h (2 Bft)
29.10.2015 05:05 8,2 C 8,1 C 87 % 1014,6 hPa 0,0 mm 5,7 km/h (1 Bft) W-SW 247 6,2 C 10,9 km/h (2 Bft)
29.10.2015 05:10 8,2 C 8,1 C 87 % 1014,8 hPa 0,0 mm 5,7 km/h (1 Bft) W 270 6,2 C 4,9 km/h (1 Bft)
29.10.2015 05:15 8,1 C 8,0 C 87 % 1014,8 hPa 0,0 mm 3,4 km/h (1 Bft) W 270 6,1 C 0,0 km/h (0 Bft)
29.10.2015 05:20 8,1 C 8,0 C 87 % 1014,8 hPa 0,0 mm 2,6 km/h (1 Bft) W 270 6,1 C 3,4 km/h (1 Bft)
29.10.2015 05:25 8,1 C 8,0 C 87 % 1014,8 hPa 0,0 mm 2,8 km/h (1 Bft) W-SW 247 6,1 C 4,9 km/h (1 Bft)
29.10.2015 05:30 8,1 C 8,0 C 87 % 1015,2 hPa 0,0 mm 3,4 km/h (1 Bft) W-SW 247 6,1 C 3,6 km/h (1 Bft)
29.10.2015 05:35 8,0 C 7,9 C 88 % 1015,2 hPa 0,0 mm 3,1 km/h (1 Bft) W 270 6,1 C 4,9 km/h (1 Bft)
29.10.2015 05:40 8,0 C 7,9 C 88 % 1015,2 hPa 0,0 mm 2,8 km/h (1 Bft) W-SW 247 6,1 C 0,0 km/h (0 Bft)
29.10.2015 05:45 8,0 C 7,9 C 88 % 1015,2 hPa 0,0 mm 2,8 km/h (1 Bft) W 270 6,1 C 3,9 km/h (1 Bft)
29.10.2015 05:50 8,0 C 7,9 C 88 % 1015,2 hPa 0,0 mm 2,8 km/h (1 Bft) W 270 6,1 C 3,4 km/h (1 Bft)
29.10.2015 05:55 8,0 C 7,9 C 88 % 1015,2 hPa 0,0 mm 2,8 km/h (1 Bft) SW 225 6,1 C 6,5 km/h (2 Bft)
29.10.2015 06:00 8,0 C 7,9 C 88 % 1015,2 hPa 0,0 mm 2,8 km/h (1 Bft) W-NW 292 6,1 C 5,2 km/h (1 Bft)
29.10.2015 06:05 8,0 C 7,9 C 88 % 1015,2 hPa 0,0 mm 2,3 km/h (1 Bft) W 270 6,1 C 0,0 km/h (0 Bft)
29.10.2015 06:10 7,9 C 7,9 C 89 % 1015,2 hPa 0,0 mm 1,0 km/h (0 Bft) SW 225 6,2 C 3,4 km/h (1 Bft)
29.10.2015 06:15 8,0 C 7,9 C 88 % 1015,2 hPa 0,0 mm 2,3 km/h (1 Bft) SW 225 6,1 C 6,7 km/h (2 Bft)
29.10.2015 06:20 7,9 C 7,8 C 89 % 1015,2 hPa 0,7 mm 3,4 km/h (1 Bft) W 270 6,2 C 6,7 km/h (2 Bft)
29.10.2015 06:25 7,9 C 7,8 C 89 % 1015,2 hPa 0,0 mm 3,4 km/h (1 Bft) NW 315 6,2 C 5,4 km/h (1 Bft)
29.10.2015 06:30 7,9 C 7,8 C 89 % 1015,4 hPa 0,0 mm 3,9 km/h (1 Bft) W 270 6,2 C 4,4 km/h (1 Bft)
29.10.2015 06:35 7,9 C 7,8 C 89 % 1015,4 hPa 0,0 mm 4,4 km/h (1 Bft) W-NW 292 6,2 C 6,0 km/h (2 Bft)
29.10.2015 06:40 7,9 C 7,8 C 89 % 1015,4 hPa 0,0 mm 4,9 km/h (1 Bft) W-SW 247 6,2 C 4,1 km/h (1 Bft)
29.10.2015 06:45 7,9 C 7,8 C 89 % 1015,4 hPa 0,0 mm 4,1 km/h (1 Bft) W 270 6,2 C 3,4 km/h (1 Bft)
29.10.2015 06:50 7,8 C 7,7 C 89 % 1015,6 hPa 0,0 mm 3,1 km/h (1 Bft) W-NW 292 6,1 C 3,1 km/h (1 Bft)
29.10.2015 06:55 7,8 C 7,7 C 89 % 1015,6 hPa 0,0 mm 3,6 km/h (1 Bft) NW 315 6,1 C 4,4 km/h (1 Bft)
29.10.2015 07:00 7,9 C 7,8 C 89 % 1015,6 hPa 0,0 mm 4,7 km/h (1 Bft) NW 315 6,2 C 9,8 km/h (2 Bft)
29.10.2015 07:05 7,8 C 7,7 C 89 % 1015,6 hPa 0,0 mm 5,2 km/h (1 Bft) S 180 6,1 C 3,1 km/h (1 Bft)
29.10.2015 07:10 7,9 C 7,8 C 89 % 1015,9 hPa 0,0 mm 4,7 km/h (1 Bft) W-SW 247 6,2 C 3,4 km/h (1 Bft)
29.10.2015 07:15 7,9 C 7,8 C 89 % 1015,9 hPa 0,7 mm 4,7 km/h (1 Bft) W 270 6,2 C 5,7 km/h (1 Bft)
29.10.2015 07:20 7,9 C 7,8 C 89 % 1015,9 hPa 0,0 mm 5,4 km/h (1 Bft) W-SW 247 6,2 C 4,9 km/h (1 Bft)
29.10.2015 07:25 7,8 C 7,7 C 89 % 1015,9 hPa 0,0 mm 4,9 km/h (1 Bft) W-SW 247 6,1 C 4,9 km/h (1 Bft)
29.10.2015 07:30 7,8 C 7,7 C 89 % 1016,1 hPa 0,0 mm 4,1 km/h (1 Bft) SW 225 6,1 C 0,0 km/h (0 Bft)
29.10.2015 07:35 7,8 C 7,7 C 89 % 1016,1 hPa 0,0 mm 3,6 km/h (1 Bft) W 270 6,1 C 0,0 km/h (0 Bft)
29.10.2015 07:40 7,8 C 7,7 C 89 % 1016,1 hPa 0,0 mm 2,3 km/h (1 Bft) W-SW 247 6,1 C 3,6 km/h (1 Bft)
29.10.2015 07:44 7,8 C 7,7 C 89 % 1016,1 hPa 0,0 mm 2,3 km/h (1 Bft) S-SW 202 6,1 C 7,0 km/h (2 Bft)
29.10.2015 07:45 7,8 C 7,7 C 89 % 1016,1 hPa 0,0 mm 2,3 km/h (1 Bft) S-SW 202 6,1 C 7,0 km/h (2 Bft)
29.10.2015 07:50 7,8 C 7,7 C 89 % 1016,3 hPa 0,0 mm 3,1 km/h (1 Bft) SW 225 6,1 C 4,7 km/h (1 Bft)
29.10.2015 07:55 7,9 C 7,8 C 90 % 1016,3 hPa 0,0 mm 3,1 km/h (1 Bft) SW 225 6,4 C 3,1 km/h (1 Bft)
29.10.2015 08:00 7,9 C 7,8 C 90 % 1016,3 hPa 0,0 mm 2,3 km/h (1 Bft) W 270 6,4 C 5,4 km/h (1 Bft)
29.10.2015 08:05 7,9 C 7,8 C 90 % 1016,3 hPa 0,0 mm 1,3 km/h (1 Bft) W 270 6,4 C 0,0 km/h (0 Bft)
29.10.2015 08:10 7,9 C 7,8 C 90 % 1016,4 hPa 0,0 mm 2,3 km/h (1 Bft) W-SW 247 6,4 C 4,9 km/h (1 Bft)
29.10.2015 08:15 7,9 C 7,8 C 90 % 1016,4 hPa 0,0 mm 1,8 km/h (1 Bft) SW 225 6,4 C 0,0 km/h (0 Bft)
29.10.2015 08:20 7,9 C 7,8 C 90 % 1016,4 hPa 0,0 mm 1,6 km/h (1 Bft) W-NW 292 6,4 C 6,7 km/h (2 Bft)
29.10.2015 08:25 8,0 C 7,9 C 89 % 1016,4 hPa 0,0 mm 1,6 km/h (1 Bft) SW 225 6,3 C 0,0 km/h (0 Bft)
29.10.2015 08:30 8,0 C 8,0 C 86 % 1016,6 hPa 0,0 mm 1,3 km/h (1 Bft) W-SW 247 5,8 C 0,0 km/h (0 Bft)
29.10.2015 08:35 8,1 C 8,0 C 89 % 1016,6 hPa 0,0 mm 0,3 km/h (0 Bft) W-SW 247 6,4 C 0,0 km/h (0 Bft)
29.10.2015 08:40 8,1 C 8,0 C 89 % 1016,6 hPa 0,0 mm 0,5 km/h (0 Bft) W 270 6,4 C 7,8 km/h (2 Bft)
29.10.2015 08:45 8,1 C 8,0 C 89 % 1016,6 hPa 0,0 mm 0,8 km/h (0 Bft) W 270 6,4 C 0,0 km/h (0 Bft)
29.10.2015 08:50 8,1 C 8,0 C 89 % 1016,7 hPa 0,0 mm 1,3 km/h (1 Bft) W-SW 247 6,4 C 3,4 km/h (1 Bft)
29.10.2015 08:55 8,1 C 8,0 C 89 % 1016,7 hPa 0,0 mm 2,1 km/h (1 Bft) W 270 6,4 C 0,0 km/h (0 Bft)
29.10.2015 09:00 8,1 C 8,0 C 89 % 1016,7 hPa 0,0 mm 2,6 km/h (1 Bft) W 270 6,4 C 0,0 km/h (0 Bft)
29.10.2015 09:05 8,2 C 8,1 C 90 % 1016,7 hPa 0,0 mm 1,6 km/h (1 Bft) SW 225 6,7 C 3,1 km/h (1 Bft)
29.10.2015 09:10 8,2 C 8,1 C 90 % 1017,1 hPa 0,0 mm 0,8 km/h (0 Bft) SW 225 6,7 C 2,6 km/h (1 Bft)
29.10.2015 09:15 8,2 C 8,2 C 90 % 1017,1 hPa 0,7 mm 0,8 km/h (0 Bft) S 180 6,7 C 0,0 km/h (0 Bft)
29.10.2015 09:20 8,2 C 8,2 C 90 % 1017,1 hPa 0,0 mm 1,0 km/h (0 Bft) O 90 6,7 C 3,1 km/h (1 Bft)
29.10.2015 09:25 8,2 C 8,2 C 90 % 1017,1 hPa 0,0 mm 2,1 km/h (1 Bft) NW 315 6,7 C 5,2 km/h (1 Bft)
29.10.2015 09:30 8,2 C 8,2 C 86 % 1017,2 hPa 0,0 mm 1,8 km/h (1 Bft) W-SW 247 6,0 C 4,7 km/h (1 Bft)
29.10.2015 09:35 8,3 C 8,4 C 86 % 1017,2 hPa 0,0 mm 2,1 km/h (1 Bft) W-NW 292 6,1 C 4,7 km/h (1 Bft)
29.10.2015 09:40 8,4 C 8,5 C 86 % 1017,2 hPa 0,0 mm 2,3 km/h (1 Bft) W-SW 247 6,2 C 0,0 km/h (0 Bft)
29.10.2015 09:45 8,5 C 8,7 C 86 % 1017,2 hPa 0,0 mm 2,1 km/h (1 Bft) W 270 6,3 C 0,0 km/h (0 Bft)
29.10.2015 09:50 8,5 C 8,7 C 86 % 1017,0 hPa 0,0 mm 2,8 km/h (1 Bft) NW 315 6,3 C 4,7 km/h (1 Bft)
29.10.2015 09:55 8,4 C 8,5 C 86 % 1017,0 hPa 0,0 mm 3,1 km/h (1 Bft) NW 315 6,2 C 0,0 km/h (0 Bft)
29.10.2015 10:00 8,4 C 8,4 C 86 % 1017,0 hPa 0,0 mm 2,6 km/h (1 Bft) W-SW 247 6,2 C 4,7 km/h (1 Bft)
29.10.2015 10:05 8,4 C 8,4 C 86 % 1017,0 hPa 0,0 mm 2,1 km/h (1 Bft) W 270 6,2 C 4,4 km/h (1 Bft)
29.10.2015 10:10 8,4 C 8,5 C 86 % 1017,5 hPa 0,0 mm 2,8 km/h (1 Bft) NW 315 6,2 C 8,3 km/h (2 Bft)
29.10.2015 10:15 8,5 C 8,6 C 86 % 1017,5 hPa 0,0 mm 3,9 km/h (1 Bft) W-NW 292 6,3 C 0,0 km/h (0 Bft)
29.10.2015 10:20 8,5 C 8,7 C 86 % 1017,5 hPa 0,0 mm 3,6 km/h (1 Bft) S-SW 202 6,3 C 10,9 km/h (2 Bft)
29.10.2015 10:25 8,6 C 8,8 C 86 % 1017,5 hPa 0,0 mm 3,4 km/h (1 Bft) NW 315 6,4 C 10,4 km/h (2 Bft)
29.10.2015 10:30 8,6 C 8,7 C 86 % 1017,6 hPa 0,0 mm 3,6 km/h (1 Bft) NW 315 6,4 C 3,6 km/h (1 Bft)
29.10.2015 10:35 8,6 C 8,7 C 86 % 1017,6 hPa 0,0 mm 4,7 km/h (1 Bft) W-NW 292 6,4 C 6,2 km/h (2 Bft)
29.10.2015 10:40 8,6 C 8,8 C 86 % 1017,6 hPa 0,0 mm 4,7 km/h (1 Bft) W 270 6,4 C 6,2 km/h (2 Bft)
29.10.2015 10:45 8,7 C 9,0 C 86 % 1017,6 hPa 0,0 mm 3,1 km/h (1 Bft) NW 315 6,5 C 0,0 km/h (0 Bft)
29.10.2015 10:50 8,8 C 9,0 C 86 % 1017,9 hPa 0,0 mm 2,6 km/h (1 Bft) NW 315 6,6 C 4,9 km/h (1 Bft)
29.10.2015 10:55 8,9 C 9,2 C 86 % 1017,9 hPa 0,0 mm 3,6 km/h (1 Bft) W-SW 247 6,7 C 6,7 km/h (2 Bft)
29.10.2015 11:00 8,9 C 9,3 C 86 % 1017,9 hPa 0,0 mm 4,9 km/h (1 Bft) W 270 6,7 C 11,4 km/h (2 Bft)
29.10.2015 11:05 9,0 C 9,5 C 86 % 1017,9 hPa 0,0 mm 4,1 km/h (1 Bft) W 270 6,8 C 3,1 km/h (1 Bft)
29.10.2015 11:10 9,1 C 9,5 C 86 % 1017,8 hPa 0,0 mm 3,6 km/h (1 Bft) NW 315 6,9 C 3,6 km/h (1 Bft)
29.10.2015 11:15 9,1 C 9,5 C 86 % 1017,8 hPa 0,0 mm 6,2 km/h (2 Bft) W-NW 292 6,9 C 8,3 km/h (2 Bft)
29.10.2015 11:20 9,2 C 9,7 C 86 % 1017,8 hPa 0,0 mm 6,5 km/h (2 Bft) NW 315 7,0 C 5,4 km/h (1 Bft)
29.10.2015 11:25 9,3 C 9,7 C 86 % 1017,8 hPa 0,0 mm 4,7 km/h (1 Bft) NW 315 7,1 C 5,4 km/h (1 Bft)
29.10.2015 11:30 9,3 C 9,7 C 86 % 1017,8 hPa 0,0 mm 3,9 km/h (1 Bft) NW 315 7,1 C 6,0 km/h (2 Bft)
29.10.2015 11:35 9,3 C 9,7 C 86 % 1017,8 hPa 0,0 mm 2,6 km/h (1 Bft) W-SW 247 7,1 C 5,7 km/h (1 Bft)
29.10.2015 11:40 9,3 C 9,5 C 86 % 1017,8 hPa 0,0 mm 3,4 km/h (1 Bft) W-SW 247 7,1 C 6,2 km/h (2 Bft)
29.10.2015 11:45 9,3 C 9,7 C 86 % 1017,8 hPa 0,0 mm 3,4 km/h (1 Bft) NW 315 7,1 C 5,4 km/h (1 Bft)
29.10.2015 11:50 9,3 C 9,7 C 86 % 1018,2 hPa 0,0 mm 2,3 km/h (1 Bft) W-NW 292 7,1 C 0,0 km/h (0 Bft)
29.10.2015 11:55 9,3 C 9,7 C 86 % 1018,2 hPa 0,0 mm 2,3 km/h (1 Bft) W-NW 292 7,1 C 5,2 km/h (1 Bft)
29.10.2015 12:00 9,2 C 9,5 C 85 % 1018,2 hPa 0,0 mm 3,6 km/h (1 Bft) NW 315 6,8 C 0,0 km/h (0 Bft)
29.10.2015 12:05 9,2 C 9,5 C 85 % 1018,2 hPa 0,0 mm 3,6 km/h (1 Bft) W-NW 292 6,8 C 0,0 km/h (0 Bft)
29.10.2015 12:10 9,2 C 9,6 C 85 % 1018,4 hPa 0,0 mm 4,4 km/h (1 Bft) W 270 6,8 C 6,2 km/h (2 Bft)
29.10.2015 12:15 9,3 C 9,7 C 85 % 1018,4 hPa 0,0 mm 4,1 km/h (1 Bft) W-SW 247 6,9 C 6,5 km/h (2 Bft)
29.10.2015 12:20 9,3 C 9,6 C 85 % 1018,4 hPa 0,0 mm 4,1 km/h (1 Bft) W-SW 247 6,9 C 6,5 km/h (2 Bft)
29.10.2015 12:25 9,3 C 9,7 C 86 % 1018,4 hPa 0,0 mm 4,1 km/h (1 Bft) W-SW 247 7,1 C 6,5 km/h (2 Bft)
29.10.2015 12:30 9,3 C 9,8 C 85 % 1018,6 hPa 0,0 mm 3,6 km/h (1 Bft) W-NW 292 6,9 C 5,7 km/h (1 Bft)
29.10.2015 12:35 9,1 C 9,5 C 85 % 1018,6 hPa 0,0 mm 6,0 km/h (2 Bft) W 270 6,7 C 13,5 km/h (3 Bft)
29.10.2015 12:40 9,1 C 9,3 C 85 % 1018,6 hPa 0,0 mm 6,7 km/h (2 Bft) W 270 6,7 C 7,5 km/h (2 Bft)
29.10.2015 12:45 9,1 C 9,3 C 85 % 1018,6 hPa 0,0 mm 6,2 km/h (2 Bft) W 270 6,7 C 5,2 km/h (1 Bft)
29.10.2015 12:50 9,1 C 9,4 C 86 % 1018,6 hPa 0,0 mm 4,1 km/h (1 Bft) W 270 6,9 C 4,4 km/h (1 Bft)
29.10.2015 12:55 9,1 C 9,4 C 86 % 1018,6 hPa 0,0 mm 3,1 km/h (1 Bft) W-NW 292 6,9 C 3,1 km/h (1 Bft)
29.10.2015 13:00 9,1 C 9,5 C 86 % 1018,6 hPa 0,0 mm 2,8 km/h (1 Bft) W-NW 292 6,9 C 0,0 km/h (0 Bft)
29.10.2015 13:05 9,2 C 9,8 C 86 % 1018,6 hPa 0,0 mm 3,4 km/h (1 Bft) NW 315 7,0 C 4,9 km/h (1 Bft)
29.10.2015 13:10 9,2 C 10,0 C 86 % 1018,9 hPa 0,0 mm 3,4 km/h (1 Bft) W 270 7,0 C 5,7 km/h (1 Bft)
29.10.2015 13:15 9,3 C 10,3 C 86 % 1018,9 hPa 0,0 mm 4,7 km/h (1 Bft) W 270 7,1 C 3,9 km/h (1 Bft)
29.10.2015 13:20 9,4 C 10,5 C 86 % 1018,9 hPa 0,0 mm 5,2 km/h (1 Bft) W-SW 247 7,2 C 4,1 km/h (1 Bft)
29.10.2015 13:25 9,4 C 10,6 C 86 % 1018,9 hPa 0,0 mm 4,1 km/h (1 Bft) W 270 7,2 C 3,9 km/h (1 Bft)
29.10.2015 13:30 9,4 C 10,6 C 86 % 1018,7 hPa 0,0 mm 3,9 km/h (1 Bft) NW 315 7,2 C 0,0 km/h (0 Bft)
29.10.2015 13:35 9,6 C 10,7 C 86 % 1018,7 hPa 0,0 mm 2,6 km/h (1 Bft) W 270 7,4 C 2,8 km/h (1 Bft)
29.10.2015 13:40 9,6 C 10,7 C 86 % 1018,7 hPa 0,0 mm 2,1 km/h (1 Bft) W-NW 292 7,4 C 4,9 km/h (1 Bft)
29.10.2015 13:44 9,4 C 10,6 C 85 % 1018,7 hPa 0,0 mm 2,6 km/h (1 Bft) W 270 7,0 C 0,0 km/h (0 Bft)
29.10.2015 13:46 9,4 C 10,6 C 85 % 1018,7 hPa 0,0 mm 2,6 km/h (1 Bft) W 270 7,0 C 0,0 km/h (0 Bft)
29.10.2015 13:50 9,4 C 10,5 C 85 % 1019,1 hPa 0,0 mm 3,6 km/h (1 Bft) W 270 7,0 C 4,1 km/h (1 Bft)
29.10.2015 13:55 9,4 C 10,4 C 85 % 1019,1 hPa 0,0 mm 3,9 km/h (1 Bft) SW 225 7,0 C 0,0 km/h (0 Bft)
29.10.2015 14:00 9,3 C 10,4 C 85 % 1019,1 hPa 0,0 mm 3,9 km/h (1 Bft) W-SW 247 6,9 C 3,9 km/h (1 Bft)
29.10.2015 14:05 9,4 C 10,5 C 85 % 1019,1 hPa 0,0 mm 3,1 km/h (1 Bft) W-SW 247 7,0 C 0,0 km/h (0 Bft)
29.10.2015 14:10 9,6 C 10,7 C 85 % 1019,6 hPa 0,0 mm 1,8 km/h (1 Bft) W 270 7,2 C 6,0 km/h (2 Bft)
29.10.2015 14:15 9,6 C 10,6 C 85 % 1019,6 hPa 0,0 mm 2,3 km/h (1 Bft) W-NW 292 7,2 C 4,4 km/h (1 Bft)
29.10.2015 14:20 9,6 C 10,5 C 85 % 1019,6 hPa 0,0 mm 4,1 km/h (1 Bft) W 270 7,2 C 3,6 km/h (1 Bft)
29.10.2015 14:25 9,4 C 10,5 C 85 % 1019,6 hPa 0,0 mm 4,7 km/h (1 Bft) W-SW 247 7,0 C 7,8 km/h (2 Bft)
29.10.2015 14:30 9,6 C 10,5 C 85 % 1019,2 hPa 0,0 mm 4,1 km/h (1 Bft) W-SW 247 7,2 C 6,0 km/h (2 Bft)
29.10.2015 14:35 9,6 C 10,6 C 85 % 1019,2 hPa 0,0 mm 2,8 km/h (1 Bft) NW 315 7,2 C 0,0 km/h (0 Bft)
29.10.2015 14:40 9,6 C 10,8 C 85 % 1019,2 hPa 0,0 mm 2,3 km/h (1 Bft) W-NW 292 7,2 C 4,1 km/h (1 Bft)
29.10.2015 14:45 9,7 C 11,0 C 85 % 1019,2 hPa 0,0 mm 3,1 km/h (1 Bft) W 270 7,3 C 10,6 km/h (2 Bft)
29.10.2015 14:50 9,7 C 11,0 C 84 % 1019,2 hPa 0,0 mm 3,6 km/h (1 Bft) W-SW 247 7,1 C 0,0 km/h (0 Bft)
29.10.2015 14:55 9,7 C 11,0 C 84 % 1019,2 hPa 0,0 mm 3,1 km/h (1 Bft) W-SW 247 7,1 C 2,8 km/h (1 Bft)
29.10.2015 15:00 9,7 C 10,9 C 84 % 1019,2 hPa 0,0 mm 1,8 km/h (1 Bft) W 270 7,1 C 3,9 km/h (1 Bft)
29.10.2015 15:05 9,6 C 10,7 C 84 % 1019,2 hPa 0,0 mm 3,1 km/h (1 Bft) W 270 7,0 C 0,0 km/h (0 Bft)
29.10.2015 15:10 9,6 C 10,6 C 84 % 1019,4 hPa 0,0 mm 3,4 km/h (1 Bft) NW 315 7,0 C 3,4 km/h (1 Bft)
29.10.2015 15:15 9,6 C 10,5 C 84 % 1019,4 hPa 0,0 mm 2,8 km/h (1 Bft) W 270 7,0 C 4,7 km/h (1 Bft)
29.10.2015 15:20 9,6 C 10,4 C 84 % 1019,4 hPa 0,0 mm 2,1 km/h (1 Bft) W-NW 292 7,0 C 0,0 km/h (0 Bft)
29.10.2015 15:25 9,6 C 10,4 C 84 % 1019,4 hPa 0,0 mm 0,8 km/h (0 Bft) W-SW 247 7,0 C 4,1 km/h (1 Bft)
29.10.2015 15:30 9,7 C 10,3 C 84 % 1019,8 hPa 0,0 mm 1,6 km/h (1 Bft) W-NW 292 7,1 C 5,2 km/h (1 Bft)
29.10.2015 15:35 9,7 C 10,3 C 84 % 1019,8 hPa 0,0 mm 2,3 km/h (1 Bft) W 270 7,1 C 4,4 km/h (1 Bft)
29.10.2015 15:40 9,6 C 10,1 C 84 % 1019,8 hPa 0,0 mm 2,6 km/h (1 Bft) SW 225 7,0 C 0,0 km/h (0 Bft)
29.10.2015 15:45 9,4 C 10,0 C 84 % 1019,8 hPa 0,0 mm 1,8 km/h (1 Bft) SW 225 6,8 C 3,1 km/h (1 Bft)
29.10.2015 15:50 9,4 C 9,9 C 84 % 1019,8 hPa 0,0 mm 0,8 km/h (0 Bft) W 270 6,8 C 3,1 km/h (1 Bft)
29.10.2015 15:55 9,4 C 9,8 C 84 % 1019,8 hPa 0,0 mm 0,8 km/h (0 Bft) W 270 6,8 C 0,0 km/h (0 Bft)
29.10.2015 16:00 9,4 C 9,8 C 84 % 1019,8 hPa 0,0 mm 0,8 km/h (0 Bft) SW 225 6,8 C 0,0 km/h (0 Bft)
29.10.2015 16:05 9,3 C 9,7 C 84 % 1019,8 hPa 0,0 mm 0,3 km/h (0 Bft) W-SW 247 6,7 C 2,6 km/h (1 Bft)
29.10.2015 16:10 9,3 C 9,7 C 84 % 1020,1 hPa 0,0 mm 0,0 km/h (0 Bft) S 180 6,7 C 0,0 km/h (0 Bft)
29.10.2015 16:15 9,3 C 9,6 C 84 % 1020,1 hPa 0,0 mm 0,5 km/h (0 Bft) W-SW 247 6,7 C 2,6 km/h (1 Bft)
29.10.2015 16:20 9,3 C 9,6 C 84 % 1020,1 hPa 0,0 mm 0,5 km/h (0 Bft) SW 225 6,7 C 0,0 km/h (0 Bft)
29.10.2015 16:25 9,3 C 9,5 C 84 % 1020,1 hPa 0,0 mm 0,3 km/h (0 Bft) W-SW 247 6,7 C 0,0 km/h (0 Bft)
29.10.2015 16:30 9,2 C 9,4 C 84 % 1020,2 hPa 0,0 mm 0,0 km/h (0 Bft) SW 225 6,6 C 0,0 km/h (0 Bft)
29.10.2015 16:35 9,2 C 9,3 C 85 % 1020,2 hPa 0,0 mm 0,0 km/h (0 Bft) SW 225 6,8 C 0,0 km/h (0 Bft)
29.10.2015 16:40 9,1 C 9,3 C 84 % 1020,2 hPa 0,0 mm 0,0 km/h (0 Bft) SW 225 6,5 C 0,0 km/h (0 Bft)
29.10.2015 16:45 9,1 C 9,2 C 85 % 1020,2 hPa 0,0 mm 0,0 km/h (0 Bft) W 270 6,7 C 0,0 km/h (0 Bft)
29.10.2015 16:50 9,0 C 9,1 C 84 % 1020,5 hPa 0,0 mm 0,0 km/h (0 Bft) W-SW 247 6,4 C 0,0 km/h (0 Bft)
29.10.2015 16:55 9,0 C 9,0 C 85 % 1020,5 hPa 0,0 mm 0,0 km/h (0 Bft) W-SW 247 6,6 C 0,0 km/h (0 Bft)
29.10.2015 17:00 8,9 C 8,9 C 85 % 1020,5 hPa 0,0 mm 0,0 km/h (0 Bft) S 180 6,5 C 0,0 km/h (0 Bft)
29.10.2015 17:05 8,7 C 8,7 C 85 % 1020,5 hPa 0,0 mm 0,0 km/h (0 Bft) SW 225 6,3 C 0,0 km/h (0 Bft)
29.10.2015 17:10 8,6 C 8,5 C 85 % 1020,5 hPa 0,0 mm 0,0 km/h (0 Bft) SW 225 6,2 C 0,0 km/h (0 Bft)
29.10.2015 17:15 8,3 C 8,2 C 86 % 1020,5 hPa 0,0 mm 0,0 km/h (0 Bft) S-SW 202 6,1 C 2,8 km/h (1 Bft)
29.10.2015 17:20 8,2 C 8,1 C 86 % 1020,5 hPa 0,0 mm 0,8 km/h (0 Bft) S 180 6,0 C 4,1 km/h (1 Bft)
29.10.2015 17:25 8,1 C 8,0 C 86 % 1020,5 hPa 0,0 mm 2,6 km/h (1 Bft) S 180 5,9 C 2,8 km/h (1 Bft)
29.10.2015 17:30 8,0 C 7,9 C 87 % 1020,6 hPa 0,0 mm 2,6 km/h (1 Bft) S 180 6,0 C 2,8 km/h (1 Bft)
29.10.2015 17:35 7,7 C 7,6 C 87 % 1020,6 hPa 0,0 mm 2,1 km/h (1 Bft) S 180 5,7 C 3,4 km/h (1 Bft)
29.10.2015 17:40 7,6 C 7,5 C 88 % 1020,6 hPa 0,0 mm 1,8 km/h (1 Bft) SW 225 5,7 C 3,1 km/h (1 Bft)
29.10.2015 17:45 7,5 C 7,4 C 88 % 1020,6 hPa 0,0 mm 1,6 km/h (1 Bft) S 180 5,6 C 3,6 km/h (1 Bft)
29.10.2015 17:50 7,4 C 7,3 C 88 % 1020,8 hPa 0,0 mm 1,3 km/h (1 Bft) S 180 5,5 C 3,1 km/h (1 Bft)
29.10.2015 17:55 7,3 C 7,2 C 89 % 1020,8 hPa 0,0 mm 0,5 km/h (0 Bft) S 180 5,6 C 2,6 km/h (1 Bft)
29.10.2015 18:00 7,3 C 7,2 C 89 % 1020,8 hPa 0,0 mm 1,3 km/h (1 Bft) S-SO 157 5,6 C 3,6 km/h (1 Bft)
29.10.2015 18:05 7,3 C 7,3 C 89 % 1020,8 hPa 0,0 mm 1,6 km/h (1 Bft) S-SO 157 5,6 C 0,0 km/h (0 Bft)
29.10.2015 18:10 7,3 C 7,3 C 86 % 1020,8 hPa 0,0 mm 1,0 km/h (0 Bft) S-SO 157 5,1 C 0,0 km/h (0 Bft)
29.10.2015 18:15 7,3 C 7,3 C 90 % 1020,8 hPa 0,0 mm 0,0 km/h (0 Bft) SO 135 5,8 C 0,0 km/h (0 Bft)
29.10.2015 18:20 7,1 C 7,1 C 89 % 1020,8 hPa 0,0 mm 0,0 km/h (0 Bft) NW 315 5,4 C 0,0 km/h (0 Bft)
29.10.2015 18:25 7,1 C 7,0 C 89 % 1020,8 hPa 0,0 mm 0,0 km/h (0 Bft) W-SW 247 5,4 C 0,0 km/h (0 Bft)
29.10.2015 18:30 7,1 C 7,0 C 89 % 1021,0 hPa 0,0 mm 0,0 km/h (0 Bft) W 270 5,4 C 0,0 km/h (0 Bft)
29.10.2015 18:35 7,1 C 7,2 C 86 % 1021,0 hPa 0,0 mm 0,0 km/h (0 Bft) W-SW 247 4,9 C 0,0 km/h (0 Bft)
29.10.2015 18:40 7,4 C 7,4 C 86 % 1021,0 hPa 0,0 mm 0,0 km/h (0 Bft) S 180 5,2 C 0,0 km/h (0 Bft)
29.10.2015 18:45 7,6 C 7,6 C 87 % 1021,0 hPa 0,0 mm 0,0 km/h (0 Bft) S 180 5,6 C 0,0 km/h (0 Bft)
29.10.2015 18:50 7,5 C 7,6 C 87 % 1021,1 hPa 0,0 mm 0,0 km/h (0 Bft) NO 45 5,5 C 0,0 km/h (0 Bft)
29.10.2015 18:55 7,5 C 7,4 C 90 % 1021,1 hPa 0,0 mm 0,0 km/h (0 Bft) NO 45 6,0 C 0,0 km/h (0 Bft)
29.10.2015 19:00 7,5 C 7,4 C 90 % 1021,1 hPa 0,0 mm 0,0 km/h (0 Bft) NO 45 6,0 C 0,0 km/h (0 Bft)
29.10.2015 19:05 7,5 C 7,4 C 90 % 1021,1 hPa 0,0 mm 0,0 km/h (0 Bft) O-NO 67 6,0 C 0,0 km/h (0 Bft)
29.10.2015 19:10 7,5 C 7,5 C 90 % 1021,4 hPa 0,0 mm 0,0 km/h (0 Bft) SO 135 6,0 C 0,0 km/h (0 Bft)
29.10.2015 19:15 7,7 C 7,7 C 87 % 1021,4 hPa 0,0 mm 0,0 km/h (0 Bft) S 180 5,7 C 0,0 km/h (0 Bft)
29.10.2015 19:20 7,8 C 7,8 C 87 % 1021,4 hPa 0,0 mm 0,3 km/h (0 Bft) S 180 5,8 C 0,0 km/h (0 Bft)
29.10.2015 19:25 7,7 C 7,7 C 90 % 1021,4 hPa 0,0 mm 0,5 km/h (0 Bft) NW 315 6,2 C 0,0 km/h (0 Bft)
29.10.2015 19:30 7,6 C 7,6 C 90 % 1021,4 hPa 0,0 mm 0,3 km/h (0 Bft) NW 315 6,1 C 0,0 km/h (0 Bft)
29.10.2015 19:35 7,6 C 7,6 C 90 % 1021,4 hPa 0,0 mm 0,0 km/h (0 Bft) NW 315 6,1 C 0,0 km/h (0 Bft)
29.10.2015 19:40 7,6 C 7,6 C 90 % 1021,4 hPa 0,0 mm 0,0 km/h (0 Bft) NW 315 6,1 C 0,0 km/h (0 Bft)
29.10.2015 19:45 7,6 C 7,6 C 90 % 1021,4 hPa 0,0 mm 0,0 km/h (0 Bft) N-NW 337 6,1 C 0,0 km/h (0 Bft)
29.10.2015 19:47 7,6 C 7,6 C 90 % 1021,4 hPa 0,0 mm 0,0 km/h (0 Bft) N-NW 337 6,1 C 0,0 km/h (0 Bft)
29.10.2015 19:50 7,6 C 7,6 C 90 % 1021,6 hPa 0,0 mm 0,0 km/h (0 Bft) N-NW 337 6,1 C 0,0 km/h (0 Bft)
29.10.2015 19:55 7,6 C 7,6 C 90 % 1021,6 hPa 0,0 mm 0,0 km/h (0 Bft) N-NW 337 6,1 C 0,0 km/h (0 Bft)
29.10.2015 20:00 7,6 C 7,6 C 90 % 1021,6 hPa 0,0 mm 0,0 km/h (0 Bft) N-NW 337 6,1 C 0,0 km/h (0 Bft)
29.10.2015 20:05 7,6 C 7,6 C 90 % 1021,6 hPa 0,0 mm 0,0 km/h (0 Bft) N-NW 337 6,1 C 0,0 km/h (0 Bft)
29.10.2015 20:10 7,6 C 7,6 C 90 % 1021,6 hPa 0,0 mm 0,0 km/h (0 Bft) NW 315 6,1 C 0,0 km/h (0 Bft)
29.10.2015 20:15 7,6 C 7,6 C 87 % 1021,6 hPa 0,0 mm 0,0 km/h (0 Bft) N-NO 22 5,6 C 0,0 km/h (0 Bft)
29.10.2015 20:20 7,6 C 7,6 C 87 % 1021,6 hPa 0,0 mm 0,0 km/h (0 Bft) N-NO 22 5,6 C 0,0 km/h (0 Bft)
29.10.2015 20:25 7,7 C 7,7 C 87 % 1021,6 hPa 0,0 mm 0,0 km/h (0 Bft) N-NO 22 5,7 C 0,0 km/h (0 Bft)
29.10.2015 20:30 7,7 C 7,7 C 87 % 1021,7 hPa 0,0 mm 0,0 km/h (0 Bft) NO 45 5,7 C 0,0 km/h (0 Bft)
29.10.2015 20:35 7,8 C 7,8 C 87 % 1021,7 hPa 0,0 mm 0,0 km/h (0 Bft) O-NO 67 5,8 C 0,0 km/h (0 Bft)
29.10.2015 20:40 7,8 C 7,8 C 90 % 1021,7 hPa 0,0 mm 0,0 km/h (0 Bft) NO 45 6,3 C 0,0 km/h (0 Bft)
29.10.2015 20:45 7,7 C 7,7 C 90 % 1021,7 hPa 0,0 mm 0,0 km/h (0 Bft) NO 45 6,2 C 0,0 km/h (0 Bft)
29.10.2015 20:50 7,7 C 7,7 C 90 % 1021,7 hPa 0,0 mm 0,0 km/h (0 Bft) NO 45 6,2 C 0,0 km/h (0 Bft)
29.10.2015 20:55 7,7 C 7,7 C 90 % 1021,7 hPa 0,0 mm 0,0 km/h (0 Bft) NO 45 6,2 C 0,0 km/h (0 Bft)
29.10.2015 21:00 7,7 C 7,7 C 90 % 1021,7 hPa 0,0 mm 0,0 km/h (0 Bft) N-NO 22 6,2 C 0,0 km/h (0 Bft)
29.10.2015 21:05 7,7 C 7,8 C 90 % 1021,7 hPa 0,0 mm 0,0 km/h (0 Bft) NO 45 6,2 C 0,0 km/h (0 Bft)
29.10.2015 21:10 7,8 C 7,9 C 87 % 1021,7 hPa 0,0 mm 0,3 km/h (0 Bft) NO 45 5,8 C 4,7 km/h (1 Bft)
29.10.2015 21:15 7,9 C 8,0 C 88 % 1021,7 hPa 0,0 mm 0,8 km/h (0 Bft) O-SO 112 6,0 C 0,0 km/h (0 Bft)
29.10.2015 21:20 8,0 C 8,0 C 90 % 1021,7 hPa 0,0 mm 1,0 km/h (0 Bft) O-SO 112 6,5 C 3,6 km/h (1 Bft)
29.10.2015 21:25 8,0 C 8,0 C 90 % 1021,7 hPa 0,0 mm 0,8 km/h (0 Bft) NO 45 6,5 C 0,0 km/h (0 Bft)
29.10.2015 21:30 8,0 C 8,0 C 90 % 1021,8 hPa 0,0 mm 1,6 km/h (1 Bft) NO 45 6,5 C 3,9 km/h (1 Bft)
29.10.2015 21:35 7,9 C 7,9 C 91 % 1021,8 hPa 0,0 mm 2,1 km/h (1 Bft) O-NO 67 6,5 C 5,4 km/h (1 Bft)
29.10.2015 21:40 7,9 C 7,9 C 91 % 1021,8 hPa 0,0 mm 3,1 km/h (1 Bft) NO 45 6,5 C 4,4 km/h (1 Bft)
29.10.2015 21:45 7,9 C 7,9 C 91 % 1021,8 hPa 0,0 mm 3,1 km/h (1 Bft) O-NO 67 6,5 C 0,0 km/h (0 Bft)
29.10.2015 21:50 7,9 C 7,9 C 91 % 1021,8 hPa 0,0 mm 2,6 km/h (1 Bft) NO 45 6,5 C 4,9 km/h (1 Bft)
29.10.2015 21:55 7,9 C 7,9 C 91 % 1021,8 hPa 0,0 mm 4,9 km/h (1 Bft) O-NO 67 6,5 C 14,2 km/h (3 Bft)
29.10.2015 22:00 7,9 C 7,7 C 92 % 1021,8 hPa 0,0 mm 7,3 km/h (2 Bft) O-NO 67 6,7 C 7,5 km/h (2 Bft)
29.10.2015 22:05 7,8 C 7,8 C 92 % 1021,8 hPa 0,0 mm 5,2 km/h (1 Bft) W 270 6,6 C 0,0 km/h (0 Bft)
29.10.2015 22:10 7,8 C 7,8 C 92 % 1021,6 hPa 0,0 mm 2,8 km/h (1 Bft) SO 135 6,6 C 3,1 km/h (1 Bft)
29.10.2015 22:15 7,8 C 7,8 C 92 % 1021,6 hPa 0,0 mm 3,6 km/h (1 Bft) O-NO 67 6,6 C 8,8 km/h (2 Bft)
29.10.2015 22:20 7,7 C 7,7 C 92 % 1021,6 hPa 0,0 mm 4,1 km/h (1 Bft) O-NO 67 6,5 C 4,4 km/h (1 Bft)
29.10.2015 22:25 7,7 C 7,7 C 92 % 1021,6 hPa 0,0 mm 3,4 km/h (1 Bft) O-SO 112 6,5 C 3,9 km/h (1 Bft)
29.10.2015 22:30 7,7 C 7,7 C 92 % 1021,6 hPa 0,0 mm 2,8 km/h (1 Bft) O 90 6,5 C 5,2 km/h (1 Bft)
29.10.2015 22:35 7,7 C 7,7 C 92 % 1021,6 hPa 0,0 mm 3,6 km/h (1 Bft) O-NO 67 6,5 C 7,5 km/h (2 Bft)
29.10.2015 22:40 7,7 C 7,7 C 92 % 1021,6 hPa 0,0 mm 4,1 km/h (1 Bft) O 90 6,5 C 6,7 km/h (2 Bft)
29.10.2015 22:45 7,7 C 7,7 C 92 % 1021,6 hPa 0,0 mm 4,7 km/h (1 Bft) O-NO 67 6,5 C 4,9 km/h (1 Bft)
29.10.2015 22:50 7,7 C 7,7 C 92 % 1021,5 hPa 0,0 mm 3,9 km/h (1 Bft) O-SO 112 6,5 C 4,7 km/h (1 Bft)
29.10.2015 22:55 7,7 C 7,6 C 92 % 1021,5 hPa 0,0 mm 3,6 km/h (1 Bft) O-NO 67 6,5 C 6,2 km/h (2 Bft)
29.10.2015 23:00 7,6 C 7,6 C 88 % 1021,5 hPa 0,0 mm 4,7 km/h (1 Bft) NO 45 5,7 C 8,5 km/h (2 Bft)
29.10.2015 23:05 7,6 C 7,6 C 88 % 1021,5 hPa 0,0 mm 5,7 km/h (1 Bft) O 90 5,7 C 6,2 km/h (2 Bft)
29.10.2015 23:10 7,6 C 7,6 C 88 % 1021,3 hPa 0,0 mm 5,7 km/h (1 Bft) O-NO 67 5,7 C 13,2 km/h (3 Bft)
29.10.2015 23:15 7,6 C 7,6 C 88 % 1021,3 hPa 0,0 mm 6,0 km/h (2 Bft) O-NO 67 5,7 C 8,3 km/h (2 Bft)
29.10.2015 23:20 7,6 C 7,6 C 88 % 1021,3 hPa 0,0 mm 6,2 km/h (2 Bft) O 90 5,7 C 6,7 km/h (2 Bft)
29.10.2015 23:25 7,6 C 7,6 C 88 % 1021,3 hPa 0,0 mm 4,7 km/h (1 Bft) O 90 5,7 C 3,4 km/h (1 Bft)
29.10.2015 23:30 7,7 C 7,7 C 93 % 1021,2 hPa 0,0 mm 3,6 km/h (1 Bft) O-SO 112 6,6 C 4,1 km/h (1 Bft)
29.10.2015 23:35 7,7 C 7,7 C 93 % 1021,2 hPa 0,0 mm 4,1 km/h (1 Bft) O-NO 67 6,6 C 12,2 km/h (2 Bft)
29.10.2015 23:40 7,7 C 7,7 C 93 % 1021,2 hPa 0,0 mm 5,2 km/h (1 Bft) O-NO 67 6,6 C 4,9 km/h (1 Bft)
29.10.2015 23:45 7,7 C 7,5 C 93 % 1021,2 hPa 0,0 mm 7,3 km/h (2 Bft) O-NO 67 6,6 C 9,3 km/h (2 Bft)
29.10.2015 23:50 7,7 C 7,5 C 93 % 1021,3 hPa 0,0 mm 7,3 km/h (2 Bft) N-NO 22 6,6 C 9,8 km/h (2 Bft)
29.10.2015 23:55 7,7 C 7,5 C 93 % 1021,3 hPa 0,0 mm 7,8 km/h (2 Bft) O-NO 67 6,6 C 12,4 km/h (3 Bft)
_ Min-Zeit 00:05 18:30 16:50 00:05 - 21:05 - - 00:05 22:05
Minimum _ 7,0 C 7,0 C 84 % 1012,1 hPa - 0,0 km/h (0 Bft) - - 4,5 C 0,0 km/h (0 Bft)
_ Max-Zeit 15:35 14:55 23:55 22:05 09:15 03:25 - - 13:40 00:50
Maximum _ 9,7 C 11,0 C 93 % 1021,8 hPa 0,7 mm 8,5 km/h
W (2 Bft)
- - 7,4 C 21,2 km/h
W-SW (4 Bft)
Durchschnitt _ 8,4 C 8,5 C 87 % 1017,8 hPa #2,1 mm 3,2 km/h (1 Bft) W - 6,4 C 4,2 km/h (1 Bft)